www.pogodaiklimat.ru

Погода и климат >> Архив погоды >> Австралия >> Rowley Shoals


ПОГОДА в Rowley Shoals

  • Прогноз погоды в Rowley Shoals
  • Монитор погоды в Rowley Shoals
  • Климат города

АРХИВ ПОГОДЫ в Rowley Shoals

Время (UTC), дата Ветер
(напр.,м/с)
 
Видим.   Явления Облачность Т
(С)
Тd
(С)
f
(%)
Тe
(С)
Тes
(С)
Комфортность P
(гПа)
Po
(гПа)
Тmin
(С)
Tmax
(С)
R
(мм)
R24
(мм)
S
(см)
22 10.11 0 н/о 1010.0 1009.2
23 10.11 0 н/о 1010.4 1009.6
00 11.11 0 н/о 1010.9 1010.1
01 11.11 0 н/о 1011.1 1010.3
02 11.11 0 н/о 1010.4 1009.6
03 11.11 0 н/о 1010.6 1009.8
04 11.11 0 н/о 1010.0 1009.2
05 11.11 0 н/о 1009.3 1008.5
06 11.11 0 н/о 1008.7 1007.9
07 11.11 0 н/о 1008.2 1007.4
08 11.11 0 н/о 1007.9 1007.1
09 11.11 0 н/о 1008.1 1007.3
10 11.11 0 н/о 1008.4 1007.6
11 11.11 0 н/о 1008.9 1008.1
12 11.11 0 н/о 1009.4 1008.6
13 11.11 0 н/о 1009.5 1008.7
14 11.11 0 н/о 1009.3 1008.5
15 11.11 0 н/о 1008.7 1007.9
16 11.11 0 н/о 1008.0 1007.2
17 11.11 0 н/о 1007.4 1006.6
18 11.11 0 н/о 1007.3 1006.5
19 11.11 0 н/о 1007.1 1006.3
20 11.11 0 н/о 1007.1 1006.3
21 11.11 0 н/о 1007.5 1006.7
22 11.11 0 н/о 1007.9 1007.1
23 11.11 0 н/о 1008.4 1007.6
00 12.11 0 н/о 1009.0 1008.2
01 12.11 0 н/о 1009.0 1008.2
02 12.11 0 н/о 1008.5 1007.7
03 12.11 0 н/о 1008.1 1007.3
04 12.11 0 н/о 1007.4 1006.6
05 12.11 0 н/о 1006.9 1006.1
06 12.11 0 н/о 1006.3 1005.5
07 12.11 0 н/о 1006.1 1005.3
08 12.11 0 н/о 1005.9 1005.1
09 12.11 0 н/о 1006.3 1005.5
10 12.11 0 н/о 1006.6 1005.8
11 12.11 0 н/о 1007.1 1006.3
12 12.11 0 н/о 1007.7 1006.9
13 12.11 0 н/о 1007.7 1006.9
14 12.11 0 н/о 1007.8 1007.0
15 12.11 0 н/о 1007.7 1006.9
16 12.11 0 н/о 1007.3 1006.5
17 12.11 0 н/о 1006.9 1006.1
18 12.11 0 н/о 1006.6 1005.8
19 12.11 0 н/о 1006.5 1005.7
20 12.11 0 н/о 1006.5 1005.7
21 12.11 0 н/о 1006.9 1006.1
22 12.11 0 н/о 1007.4 1006.6
23 12.11 0 н/о 1008.0 1007.2
00 13.11 0 н/о 1008.2 1007.4
01 13.11 0 н/о 1008.3 1007.5
02 13.11 0 н/о 1008.2 1007.4
03 13.11 0 н/о 1007.6 1006.8
04 13.11 0 н/о 1007.1 1006.3
05 13.11 0 н/о 1006.5 1005.7
06 13.11 0 н/о 1006.2 1005.4
07 13.11 0 н/о 1006.1 1005.3
08 13.11 0 н/о 1006.1 1005.3
09 13.11 0 н/о 1006.3 1005.5
10 13.11 0 н/о 1006.9 1006.1
11 13.11 0 н/о 1007.7 1006.9
12 13.11 0 н/о 1008.4 1007.6
13 13.11 0 н/о 1008.8 1008.0
14 13.11 0 н/о 1009.0 1008.2
15 13.11 0 н/о 1008.6 1007.8
16 13.11 0 н/о 1007.8 1007.0
17 13.11 0 н/о 1007.5 1006.7
18 13.11 0 н/о 1007.2 1006.4
19 13.11 0 н/о 1007.2 1006.4
20 13.11 0 н/о 1007.7 1006.9
21 13.11 0 н/о 1008.2 1007.4
22 13.11 0 н/о 1008.9 1008.1
23 13.11 0 н/о 1009.1 1008.3
00 14.11 0 н/о 1009.4 1008.6
01 14.11 0 н/о 1009.6 1008.8
02 14.11 0 н/о 1009.4 1008.6
03 14.11 0 н/о 1008.8 1008.0
04 14.11 0 н/о 1008.5 1007.7
05 14.11 0 н/о 1007.9 1007.1
06 14.11 0 н/о 1007.4 1006.6
07 14.11 0 н/о 1007.2 1006.4
08 14.11 0 н/о 1007.1 1006.3
09 14.11 0 н/о 1007.4 1006.6
10 14.11 0 н/о 1008.0 1007.2
11 14.11 0 н/о 1008.8 1008.0
12 14.11 0 н/о 1009.6 1008.8
13 14.11 0 н/о 1009.8 1009.0
14 14.11 0 н/о 1010.0 1009.2
15 14.11 0 н/о 1009.3 1008.5
16 14.11 0 н/о 1008.8 1008.0
17 14.11 0 н/о 1008.1 1007.3
18 14.11 0 н/о 1007.9 1007.1
19 14.11 0 н/о 1008.1 1007.3
20 14.11 0 н/о 1008.6 1007.8
21 14.11 0 н/о 1008.9 1008.1
22 14.11 0 н/о 1009.8 1009.0
23 14.11 0 н/о 1010.6 1009.8
00 15.11 0 н/о 1011.0 1010.2
01 15.11 0 н/о 1011.2 1010.4
02 15.11 0 н/о 1011.1 1010.3
03 15.11 0 н/о 1010.8 1010.0
04 15.11 0 н/о 1010.5 1009.7
05 15.11 0 н/о 1009.9 1009.1
06 15.11 0 н/о 1009.4 1008.6
07 15.11 0 н/о 1009.2 1008.4
08 15.11 0 н/о 1008.6 1007.8
09 15.11 0 н/о 1008.6 1007.8
10 15.11 0 н/о 1008.7 1007.9
11 15.11 0 н/о 1009.5 1008.7
12 15.11 0 н/о 1010.0 1009.2
13 15.11 0 н/о 1009.9 1009.1
14 15.11 0 н/о 1010.1 1009.3
15 15.11 0 н/о 1009.7 1008.9
16 15.11 0 н/о 1009.1 1008.3
17 15.11 0 н/о 1008.4 1007.6
18 15.11 0 н/о 1008.3 1007.5
19 15.11 0 н/о 1008.6 1007.8
20 15.11 0 н/о 1008.4 1007.6
21 15.11 0 н/о 1008.9 1008.1
22 15.11 0 н/о 1009.4 1008.6
23 15.11 0 н/о 1010.2 1009.4
00 16.11 0 н/о 1010.7 1009.9
01 16.11 0 н/о 1010.5 1009.7
02 16.11 0 н/о 1010.2 1009.4
03 16.11 0 н/о 1009.4 1008.6
04 16.11 0 н/о 1009.0 1008.2
05 16.11 0 н/о 1008.4 1007.6
06 16.11 0 н/о 1008.1 1007.3
07 16.11 0 н/о 1007.5 1006.7
08 16.11 0 н/о 1007.2 1006.4
09 16.11 0 н/о 1007.3 1006.5
10 16.11 0 н/о 1007.4 1006.6
11 16.11 0 н/о 1007.9 1007.1
12 16.11 0 н/о 1008.6 1007.8
13 16.11 0 н/о 1009.3 1008.5
14 16.11 0 н/о 1009.5 1008.7
15 16.11 0 н/о 1009.5 1008.7
16 16.11 0 н/о 1009.1 1008.3
17 16.11 0 н/о 1008.8 1008.0
18 16.11 0 н/о 1008.1 1007.3
19 16.11 0 н/о 1007.7 1006.9
20 16.11 0 н/о 1008.1 1007.3
21 16.11 0 н/о 1008.2 1007.4
22 16.11 0 н/о 1008.6 1007.8
23 16.11 0 н/о 1009.0 1008.2
00 17.11 0 н/о 1009.5 1008.7
01 17.11 0 н/о 1010.0 1009.2
02 17.11 0 н/о 1010.0 1009.2
03 17.11 0 н/о 1009.9 1009.1
04 17.11 0 н/о 1009.5 1008.7
05 17.11 0 н/о 1008.7 1007.9
06 17.11 0 н/о 1008.3 1007.5
07 17.11 0 н/о 1007.9 1007.1
08 17.11 0 н/о 1007.5 1006.7
09 17.11 0 н/о 1007.5 1006.7
10 17.11 0 н/о 1008.0 1007.2
11 17.11 0 н/о 1008.9 1008.1
12 17.11 0 н/о 1009.2 1008.4
13 17.11 0 н/о 1009.6 1008.8
14 17.11 0 н/о 1010.0 1009.2
15 17.11 0 н/о 1009.4 1008.6
16 17.11 0 н/о 1008.8 1008.0
17 17.11 0 н/о 1008.3 1007.5
18 17.11 0 н/о 1007.9 1007.1
19 17.11 0 н/о 1007.5 1006.7
20 17.11 0 н/о 1007.6 1006.8

 

Местоположение метеостанции Rowley Shoals (Западная Австралия, Австралия): широта -17.53 долгота 118.95 высота над уровнем моря 8 м.

В архиве по умолчанию представлена погода в Rowley Shoals за последнюю неделю. Архивные данные за месяц целиком и за предыдущие месяцы, начиная с января 2011 года, Вы можете получить, выбрав интересующий диапазон дат из раскрывающегося списка и нажав кнопку "Ввод!".

Внимание! Время в таблицах - всемирное. Для получения местного времени необходимо прибавить поправку, которая в Rowley Shoals равна 8 ч.

Смотрите также архив погоды в соседних городах и на ближайших метеорологических станциях:

Погода в Mandora (Западная Австралия, Австралия) (316 км)
Погода в Port Hedland Apardoo (Западная Австралия, Австралия) (317 км)
Погода в Broome Airport (Западная Австралия, Австралия) (351 км)
Погода в West Roebuck (Западная Австралия, Австралия) (359 км)
Погода в Roebourne Aero (Западная Австралия, Австралия) (405 км)
Погода в Marble Bar (Западная Австралия, Австралия) (415 км)
Погода в Karratha Aero (Западная Австралия, Австралия) (422 км)
Погода в Varanus Island (Западная Австралия, Австралия) (497 км)
Погода в Derby Aero (Северная территория, Австралия) (500 км)
Погода в Adele Island (Западная Австралия, Австралия) (501 км)

Пояснения к столбцам:

Ветер - указаны скорость ветра в м/с - средняя за 10 мин, порывы в срок и между сроками (в фигурных скобках) и направление, откуда дует ветер: С - северный, СВ - северо-восточный, В - восточный, ЮВ - юго-восточный, Ю - южный, ЮЗ - юго-западный, З - западный, СЗ - северо-западный.
Видимость - горизонтальная дальность видимости в метрах или километрах. При видимости от 1 до 10 км при отсутствии осадков обычно наблюдается дымка, при ухудшении видимости до 1 км и менее - туман. В сухую погоду видимость может ухудшаться дымом, пылью или мглою.
Явления - указаны атмосферные явления, наблюдавшиеся в срок или в последний час перед сроком; фигурными скобками обозначены явления, наблюдавшиеся между сроками (за 1-3 часа до срока); квадратными скобками обозначены град или гололедные отложения с указанием их диаметра в мм.
Облачность - указаны через наклонную черту общая и нижняя облачность в баллах и высота нижней границы облаков в метрах; квадратными скобками обозначены формы облаков: Ci - перистые, Cs - перисто-слоистые, Cc - перисто-кучевые, Ac - высококучевые, As - высокослоистые, Sc - слоисто-кучевые, Ns - слоисто-дождевые, Cu - кучевые, Cb - кучево-дождевые. Подробнее классификацию облаков см. в Атласе облаков (PDF).
T - Температура воздуха - температура, измеренная на высоте 2 м над землей.
Td - Температура точки росы - температура, при понижении до которой содержащийся в воздухе водяной пар достигнет насыщения.
f - Относительная влажность воздуха - влажноcть воздуха, измеренная на высоте 2 м над землей.
Te - Эффективная температура - температура, которую ощущает одетый по сезону человек в тени. Характеристика душности погоды. При расчете учитывается влияние влажности воздуха и скорости ветра на теплоощущения человека.
Tes - Эффективная температура на солнце - температура, которую ощущает человек, с поправкой на солнечный нагрев. Характеристика знойности погоды. Зависит от высоты солнца над горизонтом, облачности и скорости ветра. Ночью, в пасмурную погоду, а также при ветре 12 м/с и более поправка равна нулю.
P - Атмосферное давление - приведенное к уровню моря атмосферное давление.
Po - Атмосферное давление - измеренное на уровне метеостанции атмосферное давление.
Tmin - Минимальная температура - минимум температуры воздуха на высоте 2 м над землей.
Tmax - Максимальная температура - максимум температуры воздуха на высоте 2 м над землей.
R - Количество осадков - Количество выпавших осадков за период времени, мм. При наведении курсора мыши на число - период времени, за который выпало указанное количество осадков.
R24 - Количество осадков - Количество выпавших осадков за 24 часа, мм.
S - Снежный покров - Высота снежного покрова, см. При наведении курсора мыши на число - состояние снежного покрова и степень покрытия местности в баллах.